datetime,ave relative humidity
2000-05-03,59.93
2000-05-04,65.42
2000-05-05,62.78
2000-05-06,68.7
2000-05-07,83.02
2000-05-08,72.5
2000-05-09,72.91
2000-05-10,78.94
2000-05-11,75.63
2000-05-12,67.13
2000-05-13,71.02
2000-05-14,69.18
2000-05-15,72.07
2000-05-16,74.52
2000-05-17,64.89
2000-05-18,59.13
2000-05-19,56.41
2000-05-20,56.49
2000-05-21,54.68
2000-05-22,59.62
2000-05-23,57.44
2000-05-24,62.01
2000-05-25,64.72
2000-05-26,60.78
2000-05-27,67.51
2000-05-28,59.98
2000-05-29,63.09
2000-05-30,63.89
2000-05-31,53.05
2000-06-01,47.93
2000-06-02,50.68
2000-06-03,50.35
2000-06-04,49.67
2000-06-05,50.48
2000-06-06,60.27
2000-06-07,70.7
2000-06-08,74.25
2000-06-09,70.24
2000-06-10,65.72
2000-06-11,76.45
2000-06-12,78.85
2000-06-13,67.47
2000-06-14,56.25
2000-06-15,51.62
2000-06-16,42.12
2000-06-17,42.72
2000-06-18,55.77
2000-06-19,51.26
2000-06-20,49.84
2000-06-21,55.49
2000-06-22,57.38
2000-06-23,55.46
2000-06-24,57.41
2000-06-25,53.4
2000-06-26,45.93
2000-06-27,41.74
2000-06-28,51.05
2000-06-29,52.57
2000-06-30,51.65
2000-07-01,62.52
2000-07-02,59.71
2000-07-03,64.22
2000-07-04,74.29
2000-07-05,83.79
2000-07-06,74.63
2000-07-07,63.57
2000-07-08,72.36
2000-07-09,62.03
2000-07-10,61.43
2000-07-11,60.36
2000-07-12,56.65
2000-07-13,58.14
2000-07-14,60.94
2000-07-15,56.27
2000-07-16,51.13
2000-07-17,66.14
2000-07-18,67.9
2000-07-19,61.4
2000-07-20,57.98
2000-07-21,61.56
2000-07-22,62.25
2000-07-23,59.83
2000-07-24,57.41
2000-07-25,58.28
2000-07-26,60.35
2000-07-27,58.85
2000-07-28,60.9
2000-07-29,59.4
2000-07-30,60.08
2000-07-31,60.0
2000-08-01,57.75
2000-08-02,54.66
2000-08-03,54.96
2000-08-04,57.74
2000-08-05,59.29
2000-08-06,54.39
2000-08-07,57.23
2000-08-08,48.73
2000-08-09,63.65
2000-08-10,70.86
2000-08-11,66.11
2000-08-12,58.9
2000-08-13,56.27
2000-08-14,59.98
2000-08-15,55.97
2000-08-16,58.86
2000-08-17,60.86
2000-08-18,64.6
2000-08-19,66.14
2000-08-20,63.15
2000-08-21,58.45
2000-08-22,53.0
2000-08-23,58.5
2000-08-24,59.39
2000-08-25,61.68
2000-08-26,61.25
2000-08-27,63.29
2000-08-28,55.05
2000-08-29,53.74
2000-08-30,57.29
2000-08-31,65.14
2000-09-01,70.96
2000-09-02,78.61
2000-09-03,77.4
2000-09-04,82.99
2000-09-05,74.15
2000-09-06,72.68
2000-09-07,63.44
2000-09-08,61.04
2000-09-09,63.77
2000-09-10,71.06
2000-09-11,73.21
2000-09-12,66.48
2000-09-13,68.81
2000-09-14,67.57
2000-09-15,76.19
2000-09-16,85.22
2000-09-17,71.46
2000-09-18,63.69
2000-09-19,63.14
2000-09-20,52.03
2000-09-21,67.24
2000-09-22,61.65
2000-09-23,57.2
2000-09-24,57.18
2000-09-25,58.56
2000-09-26,61.48
2000-09-27,64.06
2000-09-28,64.58
2000-09-29,70.69
2000-09-30,72.6
2000-10-01,66.73
2000-10-02,65.18
2000-10-03,63.1
2000-10-04,57.3
2000-10-05,56.37
2000-10-06,56.96
2000-10-07,56.57
2000-10-08,60.7
2000-10-09,84.92
2000-10-10,81.63
2000-10-11,83.48
2000-10-12,86.86
2000-10-13,76.74
2000-10-14,85.09
2000-10-15,78.85
2000-10-16,75.37
2000-10-17,71.35
2000-10-18,75.43
2000-10-19,82.69
2000-10-20,86.19
2000-10-21,73.78
2000-10-22,64.95
2000-10-23,65.15
2000-10-24,74.21
2000-10-25,79.38
2000-10-26,83.12
2000-10-27,84.06
2000-10-28,78.75
2000-10-29,78.54
2000-10-30,77.86
2000-10-31,82.01
2000-11-01,88.79
2000-11-02,90.34
2000-11-03,85.47
2000-11-04,84.83
2000-11-05,71.49
2000-11-06,71.42
2000-11-07,83.46
2000-11-08,81.5
2000-11-09,80.72
2000-11-10,77.5
2000-11-11,74.33
2000-11-12,78.93
2000-11-13,84.77
2000-11-14,97.26
2000-11-15,89.15
2000-11-16,84.38
2000-11-17,85.81
2000-11-18,88.39
2000-11-19,91.33
2000-11-20,86.34
2000-11-21,87.28
2000-11-22,82.85
2000-11-23,85.74
2000-11-24,94.17
2000-11-25,94.59
2000-11-26,91.84
2000-11-27,89.05
2000-11-28,95.35
2000-11-29,86.54
2000-11-30,88.14
2000-12-01,91.65
2000-12-02,92.09
2000-12-03,94.88
2000-12-04,88.42
2000-12-05,82.93
2000-12-06,85.27
2000-12-07,91.54
2000-12-08,89.59
2000-12-09,83.38
2000-12-10,68.84
2000-12-11,92.76
2000-12-12,95.77
2000-12-13,97.98
2000-12-14,90.09
2000-12-15,83.44
2000-12-16,87.78
2000-12-17,83.01
2000-12-18,85.21
2000-12-19,80.91
2000-12-20,86.85
2000-12-21,84.84
2000-12-22,81.81
2000-12-23,93.14
2000-12-24,88.97
2000-12-25,88.54
2000-12-26,85.78
2000-12-27,88.92
2000-12-28,86.19
2000-12-29,86.17
2000-12-30,86.26
2000-12-31,85.29
2001-01-01,84.24
2001-01-02,79.31
2001-01-03,88.06
2001-01-04,81.46
2001-01-05,80.04
2001-01-06,86.04
2001-01-07,78.78
2001-01-08,76.94
2001-01-09,92.26
2001-01-10,82.52
2001-01-11,93.14
2001-01-12,96.01
2001-01-13,92.8
2001-01-14,83.34
2001-01-15,81.32
2001-01-16,83.83
2001-01-17,83.52
2001-01-18,86.29
2001-01-19,82.26
2001-01-20,81.05
2001-01-21,82.85
2001-01-22,86.55
2001-01-23,83.94
2001-01-24,85.33
2001-01-25,82.67
2001-01-26,83.68
2001-01-27,76.26
2001-01-28,80.31
2001-01-29,78.28
2001-01-30,82.7
2001-01-31,81.24
2001-02-01,80.86
2001-02-02,84.99
2001-02-03,95.75
2001-02-04,96.2
2001-02-05,74.48
2001-02-06,74.57
2001-02-07,64.73
2001-02-08,81.1
2001-02-09,92.65
2001-02-10,84.37
2001-02-11,83.66
2001-02-12,80.23
2001-02-13,72.23
2001-02-14,78.92
2001-02-15,77.89
2001-02-16,79.5
2001-02-17,70.93
2001-02-18,79.1
2001-02-19,84.96
2001-02-20,90.12
2001-02-21,84.12
2001-02-22,92.09
2001-02-23,83.38
2001-02-24,92.46
2001-02-25,86.66
2001-02-26,69.33
2001-02-27,59.11
2001-02-28,62.3
2001-03-01,87.65
2001-03-02,78.64
2001-03-03,87.62
2001-03-04,88.78
2001-03-05,82.74
2001-03-06,73.0
2001-03-07,75.22
2001-03-08,71.8
2001-03-09,76.8
2001-03-10,68.78
2001-03-11,64.59
2001-03-12,69.97
2001-03-13,63.97
2001-03-14,54.36
2001-03-15,82.53
2001-03-16,62.54
2001-03-17,86.41
2001-03-18,81.48
2001-03-19,69.95
2001-03-20,82.97
2001-03-21,82.07
2001-03-22,80.31
2001-03-23,77.6
2001-03-24,80.14
2001-03-25,71.4
2001-03-26,68.73
2001-03-27,82.15
2001-03-28,76.32
2001-03-29,68.8
2001-03-30,69.65
2001-03-31,75.36
2001-04-01,69.03
2001-04-02,73.06
2001-04-03,67.05
2001-04-04,60.42
2001-04-05,58.09
2001-04-06,82.5
2001-04-07,68.44
2001-04-08,75.05
2001-04-09,69.61
2001-04-10,72.53
2001-04-11,71.13
2001-04-12,67.97
2001-04-13,67.83
2001-04-14,65.35
2001-04-15,67.77
2001-04-16,57.49
2001-04-17,67.49
2001-04-18,87.5
2001-04-19,73.63
2001-04-20,75.16
2001-04-21,71.84
2001-04-22,73.75
2001-04-23,67.24
2001-04-24,65.1
2001-04-25,61.99
2001-04-26,62.46
2001-04-27,69.06
2001-04-28,69.64
2001-04-29,70.76
2001-04-30,67.19
2001-05-01,59.35
2001-05-02,52.15
2001-05-03,42.9
2001-05-04,54.01
2001-05-05,50.95
2001-05-06,58.53
2001-05-07,64.16
2001-05-08,50.88
2001-05-09,51.32
2001-05-10,54.71
2001-05-11,48.89
2001-05-12,54.87
2001-05-13,55.51
2001-05-14,70.21
2001-05-15,85.68
2001-05-16,64.64
2001-05-17,67.62
2001-05-18,62.94
2001-05-19,56.75
2001-05-20,52.28
2001-05-21,46.75
2001-05-22,50.65
2001-05-23,55.39
2001-05-24,56.54
2001-05-25,57.34
2001-05-26,53.68
2001-05-27,60.48
2001-05-28,60.01
2001-05-29,55.1
2001-05-30,54.25
2001-05-31,46.02
2001-06-01,57.61
2001-06-02,63.71
2001-06-03,62.97
2001-06-04,62.58
2001-06-05,72.3
2001-06-06,67.83
2001-06-07,63.62
2001-06-08,65.61
2001-06-09,57.35
2001-06-10,59.63
2001-06-11,64.92
2001-06-12,54.15
2001-06-13,57.83
2001-06-14,59.76
2001-06-15,53.21
2001-06-16,52.8
2001-06-17,54.0
2001-06-18,48.28
2001-06-19,46.48
2001-06-20,54.92
2001-06-21,55.17
2001-06-22,51.72
2001-06-23,54.98
2001-06-24,65.17
2001-06-25,73.16
2001-06-26,81.66
2001-06-27,71.99
2001-06-28,67.17
2001-06-29,67.1
2001-06-30,66.07
2001-07-01,60.32
2001-07-02,53.62
2001-07-03,60.84
2001-07-04,61.76
2001-07-05,57.41
2001-07-06,53.38
2001-07-07,58.84
2001-07-08,55.54
2001-07-09,53.36
2001-07-10,62.53
2001-07-11,79.43
2001-07-12,71.2
2001-07-13,58.69
2001-07-14,59.54
2001-07-15,62.4
2001-07-16,61.55
2001-07-17,66.95
2001-07-18,66.91
2001-07-19,74.09
2001-07-20,68.23
2001-07-21,62.45
2001-07-22,62.15
2001-07-23,59.56
2001-07-24,60.05
2001-07-25,56.62
2001-07-26,54.76
2001-07-27,54.84
2001-07-28,57.04
2001-07-29,68.43
2001-07-30,73.84
2001-07-31,66.83
2001-08-01,63.1
2001-08-02,57.22
2001-08-03,61.98
2001-08-04,65.51
2001-08-05,65.42
2001-08-06,60.77
2001-08-07,59.76
2001-08-08,53.37
2001-08-09,51.14
2001-08-10,54.28
2001-08-11,56.86
2001-08-12,56.99
2001-08-13,57.23
2001-08-14,59.34
2001-08-15,59.67
2001-08-16,55.2
2001-08-17,54.32
2001-08-18,59.25
2001-08-19,59.14
2001-08-20,57.01
2001-08-21,58.56
2001-08-22,72.38
2001-08-23,67.26
2001-08-24,66.41
2001-08-25,56.64
2001-08-26,55.9
2001-08-27,57.09
2001-08-28,58.76
2001-08-29,60.17
2001-08-30,60.09
2001-08-31,63.32
2001-09-01,61.72
2001-09-02,59.0
2001-09-03,58.07
2001-09-04,58.55
2001-09-05,59.15
2001-09-06,58.1
2001-09-07,50.94
2001-09-08,43.42
2001-09-09,51.34
2001-09-10,55.8
2001-09-11,56.24
2001-09-12,61.92
2001-09-13,86.48
2001-09-14,73.54
2001-09-15,79.63
2001-09-16,74.35
2001-09-17,66.66
2001-09-18,58.62
2001-09-19,59.95
2001-09-20,53.43
2001-09-21,55.29
2001-09-22,56.98
2001-09-23,58.01
2001-09-24,60.15
2001-09-25,81.27
2001-09-26,81.8
2001-09-27,77.63
2001-09-28,74.75
2001-09-29,69.2
2001-09-30,61.8
2001-10-01,60.85
2001-10-02,64.67
2001-10-03,56.04
2001-10-04,54.86
2001-10-05,52.24
2001-10-06,66.31
2001-10-07,59.57
2001-10-08,61.27
2001-10-09,67.82
2001-10-10,74.46
2001-10-11,69.36
2001-10-12,74.45
2001-10-13,71.33
2001-10-14,72.89
2001-10-15,77.36
2001-10-16,68.63
2001-10-17,57.31
2001-10-18,56.64
2001-10-19,59.88
2001-10-20,70.0
2001-10-21,62.08
2001-10-22,78.07
2001-10-23,68.87
2001-10-24,76.6
2001-10-25,76.54
2001-10-26,72.54
2001-10-27,73.03
2001-10-28,77.48
2001-10-29,87.11
2001-10-30,86.73
2001-10-31,76.02
2001-11-01,83.18
2001-11-02,85.96
2001-11-03,80.91
2001-11-04,74.29
2001-11-05,81.04
2001-11-06,76.52
2001-11-07,71.43
2001-11-08,73.66
2001-11-09,75.76
2001-11-10,76.84
2001-11-11,79.91
2001-11-12,86.23
2001-11-13,88.03
2001-11-14,82.41
2001-11-15,88.18
2001-11-16,89.8
2001-11-17,88.61
2001-11-18,85.58
2001-11-19,85.73
2001-11-20,86.46
2001-11-21,88.79
2001-11-22,79.91
2001-11-23,79.03
2001-11-24,92.61
2001-11-25,87.45
2001-11-26,84.91
2001-11-27,88.1
2001-11-28,93.69
2001-11-29,78.13
2001-11-30,84.9
2001-12-01,86.05
2001-12-02,87.29
2001-12-03,81.3
2001-12-04,81.7
2001-12-05,89.52
2001-12-06,77.54
2001-12-07,89.76
2001-12-08,90.52
2001-12-09,79.83
2001-12-10,81.1
2001-12-11,82.39
2001-12-12,92.03
2001-12-13,92.33
2001-12-14,83.1
2001-12-15,87.35
2001-12-16,83.61
2001-12-17,79.96
2001-12-18,92.3
2001-12-19,91.02
2001-12-20,91.48
2001-12-21,92.69
2001-12-22,91.15
2001-12-23,91.84
2001-12-24,85.02
2001-12-25,90.52
2001-12-26,93.19
2001-12-27,89.78
2001-12-28,90.52
2001-12-29,95.76
2001-12-30,98.38
2001-12-31,98.17
2002-01-01,96.85
2002-01-02,93.84
2002-01-03,96.01
2002-01-04,94.58
2002-01-05,91.34
2002-01-06,89.8
2002-01-07,67.75
2002-01-08,89.82
2002-01-09,92.22
2002-01-10,90.38
2002-01-11,91.52
2002-01-12,69.28
2002-01-13,86.13
2002-01-14,75.23
2002-01-15,69.38
2002-01-16,70.96
2002-01-17,81.15
2002-01-18,83.59
2002-01-19,74.38
2002-01-20,81.29
2002-01-21,94.28
2002-01-22,80.52
2002-01-23,85.73
2002-01-24,84.88
2002-01-25,75.11
2002-01-26,78.2
2002-01-27,75.25
2002-01-28,81.34
2002-01-29,76.74
2002-01-30,77.61
2002-01-31,81.99
2002-02-01,91.3
2002-02-02,90.32
2002-02-03,88.11
2002-02-04,85.37
2002-02-05,86.16
2002-02-06,79.87
2002-02-07,86.97
2002-02-08,83.18
2002-02-09,82.94
2002-02-10,76.55
2002-02-11,76.64
2002-02-12,70.82
2002-02-13,78.03
2002-02-14,68.94
2002-02-15,69.53
2002-02-16,82.99
2002-02-17,87.68
2002-02-18,86.25
2002-02-19,92.26
2002-02-20,96.0
2002-02-21,98.06
2002-02-22,89.65
2002-02-23,83.67
2002-02-24,69.57
2002-02-25,70.04
2002-02-26,70.23
2002-02-27,61.79
2002-02-28,50.64
2002-03-01,54.97
2002-03-02,53.89
2002-03-03,61.63
2002-03-04,67.74
2002-03-05,80.26
2002-03-06,78.46
2002-03-07,76.91
2002-03-08,63.93
2002-03-09,74.72
2002-03-10,79.63
2002-03-11,77.22
2002-03-12,78.72
2002-03-13,76.79
2002-03-14,64.5
2002-03-15,69.53
2002-03-16,78.88
2002-03-17,71.74
2002-03-18,75.18
2002-03-19,65.65
2002-03-20,68.02
2002-03-21,61.63
2002-03-22,69.73
2002-03-23,82.76
2002-03-24,68.6
2002-03-25,64.9
2002-03-26,61.57
2002-03-27,55.93
2002-03-28,65.95
2002-03-29,61.67
2002-03-30,50.42
2002-03-31,49.02
2002-04-01,53.46
2002-04-02,54.55
2002-04-03,51.94
2002-04-04,55.01
2002-04-05,69.49
2002-04-06,67.98
2002-04-07,62.73
2002-04-08,65.8
2002-04-09,77.38
2002-04-10,67.0
2002-04-11,73.0
2002-04-12,64.0
2002-04-13,74.0
2002-04-14,67.0
2002-04-15,64.0
2002-04-16,88.0
2002-04-17,80.0
2002-04-18,61.0
2002-04-19,53.0
2002-04-20,60.0
2002-04-21,56.0
2002-04-22,56.0
2002-04-23,43.0
2002-04-24,33.66
2002-04-25,51.13
2002-04-26,61.07
2002-04-27,63.29
2002-04-28,58.03
2002-04-29,66.01
2002-04-30,83.9
2002-05-01,68.25
2002-05-02,63.28
2002-05-03,49.79
2002-05-04,49.61
2002-05-05,52.78
2002-05-06,59.45
2002-05-07,44.44
2002-05-08,44.59
2002-05-09,50.15
2002-05-10,52.84
2002-05-11,52.59
2002-05-12,45.3
2002-05-13,58.14
2002-05-14,58.75
2002-05-15,53.78
2002-05-16,48.45
2002-05-17,50.03
2002-05-18,53.62
2002-05-19,69.45
2002-05-20,69.52
2002-05-21,68.83
2002-05-22,62.5
2002-05-23,54.23
2002-05-24,54.36
2002-05-25,51.93
2002-05-26,60.76
2002-05-27,71.36
2002-05-28,69.99
2002-05-29,61.69
2002-05-30,54.63
2002-05-31,51.03
2002-06-01,72.74
2002-06-02,60.4
2002-06-03,56.27
2002-06-04,59.38
2002-06-05,60.4
2002-06-06,56.34
2002-06-07,56.9
2002-06-08,57.83
2002-06-09,63.16
2002-06-10,59.72
2002-06-11,53.95
2002-06-12,44.81
2002-06-13,48.5
2002-06-14,53.13
2002-06-15,51.61
2002-06-16,55.27
2002-06-17,70.17
2002-06-18,64.78
2002-06-19,54.97
2002-06-20,54.95
2002-06-21,53.13
2002-06-22,62.54
2002-06-23,58.73
2002-06-24,57.12
2002-06-25,53.7
2002-06-26,57.09
2002-06-27,56.02
2002-06-28,58.34
2002-06-29,56.37
2002-06-30,54.52
2002-07-01,58.25
2002-07-02,53.14
2002-07-03,44.61
2002-07-04,50.57
2002-07-05,55.0
2002-07-06,56.11
2002-07-07,62.64
2002-07-08,50.9
2002-07-09,49.99
2002-07-10,52.85
2002-07-11,55.52
2002-07-12,58.83
2002-07-13,62.48
2002-07-14,63.05
2002-07-15,60.91
2002-07-16,60.41
2002-07-17,61.23
2002-07-18,60.91
2002-07-19,62.38
2002-07-20,57.8
2002-07-21,55.79
2002-07-22,60.36
2002-07-23,64.87
2002-07-24,59.2
2002-07-25,61.26
2002-07-26,64.65
2002-07-27,61.63
2002-07-28,56.01
2002-07-29,60.54
2002-07-30,63.2
2002-07-31,60.52
2002-08-01,55.74
2002-08-02,58.68
2002-08-03,61.21
2002-08-04,70.27
2002-08-05,69.03
2002-08-06,67.32
2002-08-07,60.19
2002-08-08,60.66
2002-08-09,53.6
2002-08-10,61.14
2002-08-11,61.19
2002-08-12,54.79
2002-08-13,51.6
2002-08-14,57.92
2002-08-15,53.21
2002-08-16,52.65
2002-08-17,56.32
2002-08-18,52.65
2002-08-19,63.53
2002-08-20,69.93
2002-08-21,66.4
2002-08-22,59.37
2002-08-23,65.74
2002-08-24,70.31
2002-08-25,68.2
2002-08-26,70.81
2002-08-27,62.39
2002-08-28,59.54
2002-08-29,63.19
2002-08-30,63.91
2002-08-31,54.13
2002-09-01,61.25
2002-09-02,59.94
2002-09-03,64.23
2002-09-04,59.12
2002-09-05,60.25
2002-09-06,75.28
2002-09-07,71.08
2002-09-08,65.9
2002-09-09,60.36
2002-09-10,59.7
2002-09-11,57.85
2002-09-12,54.59
2002-09-13,57.87
2002-09-14,54.35
2002-09-15,57.97
2002-09-16,64.19
2002-09-17,79.61
2002-09-18,66.73
2002-09-19,57.86
2002-09-20,56.26
2002-09-21,51.06
2002-09-22,52.64
2002-09-23,54.34
2002-09-24,54.26
2002-09-25,50.03
2002-09-26,50.95
2002-09-27,58.3
2002-09-28,60.16
2002-09-29,69.08
2002-09-30,70.3
2002-10-01,67.28
2002-10-02,57.4
2002-10-03,82.51
2002-10-04,78.48
2002-10-05,72.62
2002-10-06,64.27
2002-10-07,58.53
2002-10-08,54.12
2002-10-09,59.83
2002-10-10,65.5
2002-10-11,62.73
2002-10-12,46.01
2002-10-13,56.12
2002-10-14,51.75
2002-10-15,43.52
2002-10-16,45.62
2002-10-17,58.91
2002-10-18,62.74
2002-10-19,67.15
2002-10-20,76.16
2002-10-21,74.95
2002-10-22,67.52
2002-10-23,68.96
2002-10-24,69.2
2002-10-25,64.96
2002-10-26,75.8
2002-10-27,82.27
2002-10-28,75.04
2002-10-29,71.32
2002-10-30,52.13
2002-10-31,40.25
2002-11-01,44.88
2002-11-02,57.6
2002-11-03,55.74
2002-11-04,62.46
2002-11-05,64.65
2002-11-06,58.74
2002-11-07,75.97
2002-11-08,84.07
2002-11-09,90.61
2002-11-10,89.7
2002-11-11,90.31
2002-11-12,90.14
2002-11-13,95.59
2002-11-14,90.89
2002-11-15,89.68
2002-11-16,74.48
2002-11-17,80.88
2002-11-18,88.74
2002-11-19,80.49
2002-11-20,84.66
2002-11-21,89.81
2002-11-22,90.81
2002-11-23,78.46
2002-11-24,86.29
2002-11-25,57.59
2002-11-26,66.96
2002-11-27,65.8
2002-11-28,78.65
2002-11-29,78.83
2002-11-30,76.72
2002-12-01,86.98
2002-12-02,87.1
2002-12-03,90.24
2002-12-04,91.86
2002-12-05,91.86
2002-12-06,87.13
2002-12-07,86.28
2002-12-08,86.39
2002-12-09,82.1
2002-12-10,81.56
2002-12-11,89.22
2002-12-12,81.95
2002-12-13,86.28
2002-12-14,84.1
2002-12-15,80.06
2002-12-16,89.4
2002-12-17,82.11
2002-12-18,81.54
2002-12-19,71.7
2002-12-20,86.56
2002-12-21,83.59
2002-12-22,83.2
2002-12-23,79.4
2002-12-24,88.52
2002-12-25,87.39
2002-12-26,86.98
2002-12-27,88.3
2002-12-28,91.95
2002-12-29,83.4
2002-12-30,96.91
2002-12-31,91.0
2003-01-01,93.24
2003-01-02,80.93
2003-01-03,86.74
2003-01-04,79.83
2003-01-05,84.69
2003-01-06,86.25
2003-01-07,86.79
2003-01-08,85.26
2003-01-09,88.08
2003-01-10,89.8
2003-01-11,92.74
2003-01-12,91.6
2003-01-13,95.8
2003-01-14,97.26
2003-01-15,94.16
2003-01-16,97.31
2003-01-17,92.09
2003-01-18,88.55
2003-01-19,91.43
2003-01-20,95.48
2003-01-21,86.24
2003-01-22,84.59
2003-01-23,80.08
2003-01-24,95.01
2003-01-25,96.53
2003-01-26,90.8
2003-01-27,86.32
2003-01-28,95.89
2003-01-29,91.08
2003-01-30,85.43
2003-01-31,74.0
2003-02-01,71.02
2003-02-02,72.69
2003-02-03,74.2
2003-02-04,63.84
2003-02-05,66.26
2003-02-06,57.03
2003-02-07,56.42
2003-02-08,63.18
2003-02-09,68.57
2003-02-10,63.78
2003-02-11,62.87
2003-02-12,69.65
2003-02-13,92.12
2003-02-14,84.03
2003-02-15,85.49
2003-02-16,77.25
2003-02-17,71.65
2003-02-18,77.89
2003-02-19,82.21
2003-02-20,74.18
2003-02-21,72.64
2003-02-22,60.19
2003-02-23,59.1
2003-02-24,56.84
2003-02-25,49.01
2003-02-26,64.43
2003-02-27,69.96
2003-02-28,78.12
2003-03-01,71.6
2003-03-02,68.52
2003-03-03,70.61
2003-03-04,71.25
2003-03-05,64.25
2003-03-06,71.28
2003-03-07,75.33
2003-03-08,68.32
2003-03-09,81.43
2003-03-10,76.02
2003-03-11,79.33
2003-03-12,72.45
2003-03-13,59.88
2003-03-14,77.76
2003-03-15,83.6
2003-03-16,83.72
2003-03-17,67.62
2003-03-18,67.36
2003-03-19,76.4
2003-03-20,72.12
2003-03-21,84.44
2003-03-22,79.12
2003-03-23,61.72
2003-03-24,61.32
2003-03-25,83.85
2003-03-26,78.01
2003-03-27,63.41
2003-03-28,64.57
2003-03-29,66.93
2003-03-30,63.07
2003-03-31,63.39
2003-04-01,67.42
2003-04-02,71.08
2003-04-03,80.42
2003-04-04,75.67
2003-04-05,74.59
2003-04-06,82.56
2003-04-07,73.2
2003-04-08,71.14
2003-04-09,57.92
2003-04-10,73.87
2003-04-11,65.47
2003-04-12,73.1
2003-04-13,82.95
2003-04-14,77.07
2003-04-15,67.59
2003-04-16,79.43
2003-04-17,75.52
2003-04-18,63.75
2003-04-19,59.12
2003-04-20,66.16
2003-04-21,79.38
2003-04-22,70.72
2003-04-23,73.54
2003-04-24,88.01
2003-04-25,75.41
2003-04-26,69.15
2003-04-27,72.53
2003-04-28,72.7
2003-04-29,75.06
2003-04-30,68.2
2003-05-01,61.57
2003-05-02,66.78
2003-05-03,78.53
2003-05-04,79.66
2003-05-05,59.5
2003-05-06,67.54
2003-05-07,61.99
2003-05-08,76.25
2003-05-09,66.71
2003-05-10,73.76
2003-05-11,82.72
2003-05-12,72.8
2003-05-13,60.98
2003-05-14,61.04
2003-05-15,62.15
2003-05-16,53.68
2003-05-17,53.36
2003-05-18,45.49
2003-05-19,36.69
2003-05-20,53.83
2003-05-21,57.6
2003-05-22,59.52
2003-05-23,57.7
2003-05-24,63.07
2003-05-25,69.31
2003-05-26,62.91
2003-05-27,58.42
2003-05-28,60.7
2003-05-29,58.01
2003-05-30,65.32
2003-05-31,51.95
2003-06-01,52.43
2003-06-02,50.55
2003-06-03,45.49
2003-06-04,41.35
2003-06-05,41.47
2003-06-06,44.7
2003-06-07,48.69
2003-06-08,54.03
2003-06-09,44.8
2003-06-10,49.73
2003-06-11,49.82
2003-06-12,54.04
2003-06-13,60.29
2003-06-14,58.76
2003-06-15,58.7
2003-06-16,53.63
2003-06-17,52.45
2003-06-18,69.81
2003-06-19,62.76
2003-06-20,58.52
2003-06-21,60.84
2003-06-22,61.06
2003-06-23,65.73
2003-06-24,61.73
2003-06-25,55.58
2003-06-26,46.34
2003-06-27,50.24
2003-06-28,50.89
2003-06-29,51.36
2003-06-30,47.13
2003-07-01,60.73
2003-07-02,58.67
2003-07-03,57.95
2003-07-04,55.04
2003-07-05,53.43
2003-07-06,57.79
2003-07-07,65.79
2003-07-08,61.08
2003-07-09,56.23
2003-07-10,56.01
2003-07-11,58.47
2003-07-12,58.48
2003-07-13,58.61
2003-07-14,60.24
2003-07-15,63.4
2003-07-16,63.14
2003-07-17,58.27
2003-07-18,57.43
2003-07-19,56.24
2003-07-20,57.71
2003-07-21,59.07
2003-07-22,61.36
2003-07-23,66.73
2003-07-24,87.51
2003-07-25,71.55
2003-07-26,64.89
2003-07-27,57.88
2003-07-28,56.13
2003-07-29,55.26
2003-07-30,57.89
2003-07-31,54.1
2003-08-01,58.71
2003-08-02,68.42
2003-08-03,79.03
2003-08-04,70.07
2003-08-05,69.23
2003-08-06,71.82
2003-08-07,68.3
2003-08-08,68.52
2003-08-09,67.41
2003-08-10,65.68
2003-08-11,63.24
2003-08-12,66.58
2003-08-13,65.23
2003-08-14,59.01
2003-08-15,47.98
2003-08-16,52.3
2003-08-17,61.13
2003-08-18,63.03
2003-08-19,70.72
2003-08-20,61.54
2003-08-21,78.33
2003-08-22,89.21
2003-08-23,78.34
2003-08-24,68.37
2003-08-25,63.9
2003-08-26,68.21
2003-08-27,66.02
2003-08-28,63.4
2003-08-29,65.06
2003-08-30,52.59
2003-08-31,56.41
2003-09-01,62.25
2003-09-02,57.8
2003-09-03,62.01
2003-09-04,74.28
2003-09-05,71.96
2003-09-06,61.69
2003-09-07,65.71
2003-09-08,69.82
2003-09-09,85.08
2003-09-10,77.05
2003-09-11,77.11
2003-09-12,56.29
2003-09-13,51.44
2003-09-14,54.22
2003-09-15,58.83
2003-09-16,72.21
2003-09-17,71.09
2003-09-18,66.93
2003-09-19,72.18
2003-09-20,64.26
2003-09-21,55.23
2003-09-22,59.47
2003-09-23,65.02
2003-09-24,56.42
2003-09-25,60.01
2003-09-26,53.7
2003-09-27,61.14
2003-09-28,61.26
2003-09-29,65.86
2003-09-30,73.33
2003-10-01,68.66
2003-10-02,72.35
2003-10-03,67.09
2003-10-04,72.42
2003-10-05,74.79
2003-10-06,68.82
2003-10-07,61.98
2003-10-08,72.97
2003-10-09,67.99
2003-10-10,70.63
2003-10-11,85.73
2003-10-12,68.26
2003-10-13,72.71
2003-10-14,48.77
2003-10-15,82.04
2003-10-16,71.95
2003-10-17,71.03
2003-10-18,63.29
2003-10-19,61.38
2003-10-20,75.14
2003-10-21,78.68
2003-10-22,71.19
2003-10-23,68.55
2003-10-24,55.79
2003-10-25,49.39
2003-10-26,65.23
2003-10-27,69.86
2003-10-28,70.45
2003-10-29,69.74
2003-10-30,76.13
2003-10-31,58.99
2003-11-01,58.69
2003-11-02,87.12
2003-11-03,83.79
2003-11-04,90.3
2003-11-05,96.22
2003-11-06,94.62
2003-11-07,97.46
2003-11-08,95.74
2003-11-09,93.83
2003-11-10,90.68
2003-11-11,86.52
2003-11-12,83.31
2003-11-13,79.02
2003-11-14,93.53
2003-11-15,88.35
2003-11-16,89.73
2003-11-17,79.49
2003-11-18,80.36
2003-11-19,72.73
2003-11-20,77.64
2003-11-21,79.84
2003-11-22,73.28
2003-11-23,77.11
2003-11-24,77.18
2003-11-25,87.45
2003-11-26,84.76
2003-11-27,89.8
2003-11-28,85.0
2003-11-29,98.93
2003-11-30,98.47
2003-12-01,96.16
2003-12-02,94.59
2003-12-03,89.44
2003-12-04,93.15
2003-12-05,90.08
2003-12-06,88.53
2003-12-07,94.83
2003-12-08,91.99
2003-12-09,91.83
2003-12-10,95.8
2003-12-11,92.1
2003-12-12,98.94
2003-12-13,89.81
2003-12-14,91.32
2003-12-15,94.61
2003-12-16,93.61
2003-12-17,93.33
2003-12-18,94.54
2003-12-19,91.63
2003-12-20,95.78
2003-12-21,98.57
2003-12-22,96.86
2003-12-23,87.55
2003-12-24,87.85
2003-12-25,83.94
2003-12-26,78.25
2003-12-27,82.89
2003-12-28,85.62
2003-12-29,98.4
2003-12-30,91.22
2003-12-31,95.26
2004-01-01,94.5
2004-01-02,91.13
2004-01-03,84.43
2004-01-04,85.82
2004-01-05,90.36
2004-01-06,95.94
2004-01-07,87.44
2004-01-08,97.46
2004-01-09,86.33
2004-01-10,96.29
2004-01-11,97.87
2004-01-12,98.17
2004-01-13,96.9
2004-01-14,97.15
2004-01-15,98.38
2004-01-16,95.53
2004-01-17,99.23
2004-01-18,98.61
2004-01-19,99.42
2004-01-20,90.87
2004-01-21,91.69
2004-01-22,88.57
2004-01-23,91.5
2004-01-24,82.42
2004-01-25,76.19
2004-01-26,94.23
2004-01-27,96.57
2004-01-28,92.55
2004-01-29,89.52
2004-01-30,85.21
2004-01-31,84.91
2004-02-01,86.51
2004-02-02,94.73
2004-02-03,87.52
2004-02-04,88.12
2004-02-05,89.28
2004-02-06,85.75
2004-02-07,74.63
2004-02-08,84.39
2004-02-09,80.59
2004-02-10,81.82
2004-02-11,85.73
2004-02-12,79.21
2004-02-13,80.57
2004-02-14,85.97
2004-02-15,88.08
2004-02-16,90.84
2004-02-17,96.79
2004-02-18,84.31
2004-02-19,87.73
2004-02-20,78.94
2004-02-21,89.77
2004-02-22,97.73
2004-02-23,92.28
2004-02-24,75.25
2004-02-25,89.68
2004-02-26,85.85
2004-02-27,83.74
2004-02-28,75.26
2004-02-29,87.07
2004-03-01,90.83
2004-03-02,72.41
2004-03-03,84.73
2004-03-04,81.98
2004-03-05,83.12
2004-03-06,66.79
2004-03-07,78.43
2004-03-08,75.42
2004-03-09,77.22
2004-03-10,67.33
2004-03-11,64.64
2004-03-12,66.03
2004-03-13,63.49
2004-03-14,56.82
2004-03-15,64.59
2004-03-16,64.04
2004-03-17,66.6
2004-03-18,64.91
2004-03-19,49.49
2004-03-20,59.41
2004-03-21,61.88